Columbus, GA

11:25 PM EDT on May 24, 2018 (GMT -0400)
Columbus Metro

Weather History for KCSG - July, 2013

Change the Weather History Date:

Tuesday, July 9, 2013

  Actual Average Record
Temperature  
Mean Temperature 81 °F 82 °F  
Max Temperature 91 °F 92 °F 102 °F (1930)
Min Temperature 71 °F 73 °F 64 °F (1983)
Degree Days  
Heating Degree Days 0 0  
Month to date heating degree days 0 0  
Since 1 June heating degree days 0 0  
Since 1 July heating degree days 0 0  
Cooling Degree Days 16 18  
Month to date cooling degree days 121 154  
Year to date cooling degree days 946 958  
Since 1 June cooling degree days 583 600  
Growing Degree Days 31 (Base 50)    
Moisture  
Dew Point 70 °F    
Average Humidity 71    
Maximum Humidity 90    
Minimum Humidity 52    
Precipitation  
Precipitation 0.00 in 0.17 in 2.66 in (1948)
Month to date precipitation 2.39 1.43  
Year to date precipitation 35.32 25.64  
Sea Level Pressure  
Sea Level Pressure 30.13 in    
Wind  
Wind Speed 3 mph (WSW)    
Max Wind Speed 10 mph    
Max Gust Speed 14 mph    
Visibility 10 miles    
Events      
T = Trace of Precipitation, MM = Missing Value Source: NWS Daily Summary

Daily Weather History Graph

Daily Weather History Graph

Search for Another Location

Airport or City:

Astronomy

Jul. 09, 2013 Rise Set
Actual Time 6:39 AM EDT 8:49 PM EDT
Civil Twilight 6:11 AM EDT 9:18 PM EDT
Nautical Twilight 5:37 AM EDT 9:52 PM EDT
Astronomical Twilight 5:00 AM EDT 10:29 PM EDT
Moon 7:56 AM EDT (7/9) 9:35 PM EDT (7/9)
Length of Visible Light 15h 06m
Length of Day
14h 10m
New Moon, 2% of the Moon is Illuminated
Jul 9
New Moon
Jul 15
First Quarter
Jul 22
Full
Jul 29
Last Quarter
Aug 6
New

Hourly Weather History & Observations

Time (EDT) Temp. Heat Index Dew Point Humidity Pressure Visibility Wind Dir Wind Speed Gust Speed Precip Events Conditions
12:51 AM 75.0 °F - 66.9 °F 76% 30.15 in 10.0 mi Calm Calm - N/A   Clear
1:51 AM 73.9 °F - 66.9 °F 79% 30.14 in 10.0 mi South 3.5 mph - N/A   Clear
2:51 AM 73.0 °F - 68.0 °F 84% 30.14 in 10.0 mi Calm Calm - N/A   Clear
3:51 AM 73.9 °F - 68.0 °F 82% 30.14 in 10.0 mi Calm Calm - N/A   Clear
4:51 AM 72.0 °F - 68.0 °F 87% 30.14 in 10.0 mi Calm Calm - N/A   Clear
5:51 AM 72.0 °F - 68.0 °F 87% 30.15 in 10.0 mi Calm Calm - N/A   Clear
6:51 AM 72.0 °F - 68.0 °F 87% 30.16 in 10.0 mi Calm Calm - N/A   Clear
7:51 AM 75.0 °F - 68.0 °F 79% 30.17 in 10.0 mi Calm Calm - N/A   Clear
8:51 AM 75.9 °F - 69.1 °F 79% 30.17 in 10.0 mi Calm Calm - N/A   Clear
9:51 AM 80.1 °F 83.2 °F 70.0 °F 71% 30.18 in 10.0 mi Variable 3.5 mph - N/A   Clear
10:51 AM 82.9 °F 87.5 °F 71.1 °F 67% 30.17 in 10.0 mi SW 3.5 mph - N/A   Partly Cloudy
11:51 AM 84.9 °F 89.4 °F 70.0 °F 61% 30.17 in 10.0 mi Variable 3.5 mph - N/A   Scattered Clouds
12:51 PM 88.0 °F 92.9 °F 70.0 °F 55% 30.16 in 10.0 mi Calm Calm - N/A   Scattered Clouds
1:51 PM 87.1 °F 92.0 °F 70.0 °F 57% 30.14 in 10.0 mi South 3.5 mph - N/A   Mostly Cloudy
2:51 PM 88.0 °F 94.7 °F 72.0 °F 59% 30.12 in 10.0 mi SSW 6.9 mph - N/A   Mostly Cloudy
3:51 PM 88.0 °F 93.8 °F 71.1 °F 57% 30.10 in 10.0 mi SW 6.9 mph - N/A   Mostly Cloudy
4:51 PM 89.1 °F 93.7 °F 69.1 °F 52% 30.08 in 10.0 mi WSW 4.6 mph - N/A   Scattered Clouds
5:51 PM 90.0 °F 96.4 °F 71.1 °F 54% 30.06 in 10.0 mi WSW 6.9 mph - N/A   Partly Cloudy
6:51 PM 88.0 °F 94.7 °F 72.0 °F 59% 30.06 in 10.0 mi West 4.6 mph - N/A   Mostly Cloudy
7:51 PM 84.9 °F 92.1 °F 73.9 °F 69% 30.06 in 10.0 mi NNW 4.6 mph - N/A   Scattered Clouds
8:51 PM 84.0 °F 91.2 °F 73.9 °F 72% 30.08 in 10.0 mi East 3.5 mph - N/A   Mostly Cloudy
9:51 PM 84.0 °F 91.2 °F 73.9 °F 72% 30.09 in 10.0 mi Calm Calm - N/A   Partly Cloudy
10:51 PM 82.9 °F 89.4 °F 73.9 °F 74% 30.09 in 10.0 mi WNW 3.5 mph - N/A   Clear
11:51 PM 81.0 °F 85.8 °F 73.0 °F 77% 30.09 in 10.0 mi NW 5.8 mph - N/A   Clear